842  
ASUS41 KBTV 141710  
RWRBTV  
VERMONT REGIONAL WEATHER ROUNDUP  
NATIONAL WEATHER SERVICE BURLINGTON VT  
100 PM EDT FRI AUG 14 2020  
 
NOTE: "FAIR" INDICATES FEW OR NO CLOUDS BELOW 12,000 FEET WITH NO  
SIGNIFICANT WEATHER AND/OR S TO VISIBILITY
.  
 
* THESE REPORTS ARE NOT UNDER NWS QUALITY CONTROL AND/OR DO NOT  
REPORT WEATHER SUCH AS PRECIPITATION AND FOG.
 
 
VTZ001>019-141800-  
_____VERMONT_____  
 
 
CITY SKY/WX TMP DP RH WIND PRES REMARKS
 
BURLINGTON MOSUNNY 83 58 42 N10 30.11F  
MONTPELIER PTSUNNY 79 59 50 N7 30.16F  
MORRISVILLE MOSUNNY 80 56 43 NW7 30.12F  
ST. JOHNSBURY* N/A 82 55 39 MISG 30.09F  
LYNDONVILLE* FAIR 77 55 46 NW6 30.15F  
RUTLAND* MOSUNNY 81 60 48 N5 30.09F  
SPRINGFIELD MOSUNNY 82 57 42 VRB6 30.09F  
HIGHGATE* FAIR 80 52 37 NW7 30.13F  
NEWPORT* FAIR 75 54 46 N8 30.16F  
BENNINGTON MOSUNNY 82 62 50 VRB5 30.08F  
LAKE EDEN* N/A 75 N/A N/A E2 N/A  
 
_____LAKE CHAMPLAIN_____  
 
 
CITY SKY/WX TMP DP RH WIND PRES REMARKS
 
BURTON ISLAND* N/A 79 59 50 MISG N/A  
COLCHESTER RF* N/A 75 61 60 N16 N/A  
DIAMOND ISL* N/A 73 59 60 NW18 N/A  
 

 
 
NYZ007-026>031-035-052-083-087-141800-  
_____NORTHERN NEW YORK_____  
 
 
CITY SKY/WX TMP DP RH WIND PRES REMARKS
 
PLATTSBURGH SUNNY 78 59 51 NE12 30.12F  
SARANAC LAKE MOSUNNY 77 55 46 NE13 30.14F  
MASSENA SUNNY 78 59 51 NE13 30.14F  
OGDENSBURG* FAIR 79 61 53 N8G15 30.10F  
POTSDAM* SUNNY 79 59 50 NE14G20 30.13F  
WATERTOWN SUNNY 82 63 52 NE12 30.09F  
FT DRUM SUNNY 81 61 49 NE12G20 30.10F  
ALBANY PTSUNNY 79 63 57 NE3 30.07F  
GLENS FALLS SUNNY 82 58 43 NE5 30.07F  
 

 
NHZ002-005-011-141800-  
_____NEW HAMPSHIRE_____  
 
 
CITY SKY/WX TMP DP RH WIND PRES REMARKS
 
LEBANON MOSUNNY 86 55 34 N7 30.08F  
KEENE MOSUNNY 82 60 47 VRB5 30.07F  
MT WASHINGTON PTSUNNY 57 45 62 W12 N/A  
PLYMOUTH FAIR 81 55 40 MISG 30.08F  
WHITEFIELD PTSUNNY 80 50 34 NW8 30.12F  
 

 
 
_____REGIONAL QUEBEC LOCATIONS_____  
 
 
CITY SKY/WX TMP DP RH WIND PRES REMARKS
 
MONTREAL MOSUNNY 77 54 44 N10G23 30.13F  
QUEBEC CITY MOSUNNY 75 59 57 E12G20 30.16F  
SHERBROOKE MOSUNNY 75 55 50 VRB7 30.13F  
 
_____REGIONAL ONTARIO LOCATIONS_____  
 
 
CITY SKY/WX TMP DP RH WIND PRES REMARKS
 
OTTAWA MOSUNNY 79 55 44 NE10G17 30.14F  
 
______KEY______  
VSB - VISIBILITY IN MILES  
WCI - WIND CHILL INDEX  
HX - HEAT INDEX  

 
NNNN  
 
 
CLICK HERE TO GO TO PREVIOUS BULLETINS.

The Nexlab VT Page
The Nexlab NY Page Main Text Page